Partiellement nuageux avec quelques cirrus
Ciel couvert
Ciel couvert
Ciel couvert
Ciel couvert
Ciel couvert
Ciel couvert
(°C)
(°C)
-7°
-6°
-6°
-6°
-6°
-6°
-6°
ESE
ESE
ESE
SE
SE
SE
ESE
(km/h)
26-30
21-32
21-31
21-32
19-31
19-30
19-31
(mm)
0
0
0
0
0
0
0
(%)
0
0
0
0
0
0
0

Élévation du soleil

/ -4.8°
sun-icon
UV 0
07:24
15:28
Gibbeuse croissante (138°)
13:43
03:00

METAR pour 52.17°N 20.97°E (EPWA)

Heure Conditions Température/
Point de rosée
Vent Visibilité Météo Nuages Pression Changement Brut
IFR 1°C / 0°C 120º 14kt >10km - Overcast 700ft 1026 No Significant change EPWA 041430Z 12014KT 9999 OVC007 01/M00 Q1026 NOSIG
IFR 1°C / 0°C 120º 13kt >10km - Overcast 800ft 1026 No Significant change EPWA 041400Z 12013KT 9999 OVC008 01/M00 Q1026 NOSIG
IFR 1°C / 0°C 120º 13kt >10km - Overcast 700ft 1025 No Significant change EPWA 041330Z 12013KT 9999 OVC007 01/00 Q1025 NOSIG
IFR 2°C / 0°C 120º 13kt >10km - Overcast 700ft 1025 No Significant change EPWA 041300Z 12013KT 9999 OVC007 02/00 Q1025 NOSIG
IFR 1°C / 0°C 110º 16kt >10km - Overcast 700ft 1025 No Significant change EPWA 041230Z 11016KT 9999 OVC007 01/M00 Q1025 NOSIG
IFR 1°C / 0°C 120º 14kt >10km - Overcast 700ft 1026 No Significant change EPWA 041200Z 12014KT 9999 OVC007 01/M00 Q1026 NOSIG
IFR 1°C / 0°C 120º 14kt >10km - Overcast 700ft 1026 No Significant change EPWA 041130Z 12014KT 9999 OVC007 01/M00 Q1026 NOSIG
IFR 1°C / 0°C 120º 14kt 9000m - Overcast 700ft 1026 No Significant change EPWA 041100Z 12014KT 9000 OVC007 01/M00 Q1026 NOSIG
IFR 1°C / 0°C 120º 14kt 9000m - Overcast 700ft 1026 No Significant change EPWA 041030Z 12014KT 9000 OVC007 01/M00 Q1026 NOSIG
IFR 1°C / 0°C 120º 15kt 9000m - Overcast 600ft 1026 No Significant change EPWA 041000Z 12015KT 9000 OVC006 01/M00 Q1026 NOSIG
IFR 1°C / 0°C 120º 16kt 8000m - Overcast 600ft 1026 No Significant change EPWA 040930Z 12016KT 8000 OVC006 01/M00 Q1026 NOSIG
IFR 1°C / 0°C 110º 13kt 7000m - Overcast 600ft 1027 No Significant change EPWA 040900Z 11013KT 7000 OVC006 01/M00 Q1027 NOSIG
IFR 1°C / 0°C 110º 14kt 7000m - Overcast 600ft 1027 No Significant change EPWA 040830Z 11014KT 7000 OVC006 01/M00 Q1027 NOSIG
IFR 1°C / 0°C 120º 13kt 6000m - Overcast 600ft 1027 No Significant change EPWA 040800Z 12013KT 6000 OVC006 01/M00 Q1027 NOSIG
IFR 1°C / 0°C 120º 14kt 6000m - Overcast 500ft 1026 No Significant change EPWA 040730Z 12014KT 6000 OVC005 01/M00 Q1026 NOSIG
IFR 1°C / 0°C 120º 12kt 6000m - Overcast 500ft 1026 No Significant change EPWA 040700Z 12012KT 6000 OVC005 01/M00 Q1026 NOSIG
LIFR 0°C / 0°C 120º 13kt 5000m Mist Vertical Visibility of 0ft. 1026 No Significant change EPWA 040630Z 12013KT 5000 BR OVC004 00/M00 Q1026 NOSIG
LIFR 1°C / 0°C 120º 12kt 7000m - Overcast 400ft 1026 No Significant change EPWA 040600Z 12012KT 7000 OVC004 01/M00 Q1026 NOSIG
LIFR 1°C / 0°C 120º 14kt 7000m - Overcast 400ft 1026 No Significant change EPWA 040530Z 12014KT 7000 OVC004 01/M00 Q1026 NOSIG
LIFR 0°C / 0°C 120º 14kt 6000m - Overcast 400ft 1026 No Significant change EPWA 040500Z 12014KT 6000 OVC004 00/M00 Q1026 NOSIG
LIFR 1°C / 0°C 110º 14kt 5000m Mist Vertical Visibility of 0ft. 1026 No Significant change EPWA 040430Z 11014KT 5000 BR OVC003 01/M00 Q1026 NOSIG
LIFR 1°C / 0°C 120º 13kt 6000m - Overcast 300ft 1026 No Significant change EPWA 040400Z 12013KT 6000 OVC003 01/00 Q1026 NOSIG
LIFR 1°C / 0°C 110º 14kt 5000m Mist Vertical Visibility of 0ft. 1026 No Significant change EPWA 040330Z 11014KT 5000 BR OVC003 01/00 Q1026 NOSIG
LIFR 1°C / 0°C 120º 13kt 5000m Mist Vertical Visibility of 0ft. 1026 No Significant change EPWA 040300Z 12013KT 5000 BR OVC003 01/00 Q1026 NOSIG

IFR

1°C / 0°C

[Plus]
Vent 120º 14kt
Visibilité >10km
Météo -
Nuages Overcast 700ft
Pression 1026
Changement No Significant change
Brut EPWA 041430Z 12014KT 9999 OVC007 01/M00 Q1026 NOSIG

IFR

1°C / 0°C

[Plus]
Vent 120º 13kt
Visibilité >10km
Météo -
Nuages Overcast 800ft
Pression 1026
Changement No Significant change
Brut EPWA 041400Z 12013KT 9999 OVC008 01/M00 Q1026 NOSIG

IFR

1°C / 0°C

[Plus]
Vent 120º 13kt
Visibilité >10km
Météo -
Nuages Overcast 700ft
Pression 1025
Changement No Significant change
Brut EPWA 041330Z 12013KT 9999 OVC007 01/00 Q1025 NOSIG

IFR

2°C / 0°C

[Plus]
Vent 120º 13kt
Visibilité >10km
Météo -
Nuages Overcast 700ft
Pression 1025
Changement No Significant change
Brut EPWA 041300Z 12013KT 9999 OVC007 02/00 Q1025 NOSIG

IFR

1°C / 0°C

[Plus]
Vent 110º 16kt
Visibilité >10km
Météo -
Nuages Overcast 700ft
Pression 1025
Changement No Significant change
Brut EPWA 041230Z 11016KT 9999 OVC007 01/M00 Q1025 NOSIG

IFR

1°C / 0°C

[Plus]
Vent 120º 14kt
Visibilité >10km
Météo -
Nuages Overcast 700ft
Pression 1026
Changement No Significant change
Brut EPWA 041200Z 12014KT 9999 OVC007 01/M00 Q1026 NOSIG

IFR

1°C / 0°C

[Plus]
Vent 120º 14kt
Visibilité >10km
Météo -
Nuages Overcast 700ft
Pression 1026
Changement No Significant change
Brut EPWA 041130Z 12014KT 9999 OVC007 01/M00 Q1026 NOSIG

IFR

1°C / 0°C

[Plus]
Vent 120º 14kt
Visibilité 9000m
Météo -
Nuages Overcast 700ft
Pression 1026
Changement No Significant change
Brut EPWA 041100Z 12014KT 9000 OVC007 01/M00 Q1026 NOSIG

IFR

1°C / 0°C

[Plus]
Vent 120º 14kt
Visibilité 9000m
Météo -
Nuages Overcast 700ft
Pression 1026
Changement No Significant change
Brut EPWA 041030Z 12014KT 9000 OVC007 01/M00 Q1026 NOSIG

IFR

1°C / 0°C

[Plus]
Vent 120º 15kt
Visibilité 9000m
Météo -
Nuages Overcast 600ft
Pression 1026
Changement No Significant change
Brut EPWA 041000Z 12015KT 9000 OVC006 01/M00 Q1026 NOSIG

IFR

1°C / 0°C

[Plus]
Vent 120º 16kt
Visibilité 8000m
Météo -
Nuages Overcast 600ft
Pression 1026
Changement No Significant change
Brut EPWA 040930Z 12016KT 8000 OVC006 01/M00 Q1026 NOSIG

IFR

1°C / 0°C

[Plus]
Vent 110º 13kt
Visibilité 7000m
Météo -
Nuages Overcast 600ft
Pression 1027
Changement No Significant change
Brut EPWA 040900Z 11013KT 7000 OVC006 01/M00 Q1027 NOSIG

IFR

1°C / 0°C

[Plus]
Vent 110º 14kt
Visibilité 7000m
Météo -
Nuages Overcast 600ft
Pression 1027
Changement No Significant change
Brut EPWA 040830Z 11014KT 7000 OVC006 01/M00 Q1027 NOSIG

IFR

1°C / 0°C

[Plus]
Vent 120º 13kt
Visibilité 6000m
Météo -
Nuages Overcast 600ft
Pression 1027
Changement No Significant change
Brut EPWA 040800Z 12013KT 6000 OVC006 01/M00 Q1027 NOSIG

IFR

1°C / 0°C

[Plus]
Vent 120º 14kt
Visibilité 6000m
Météo -
Nuages Overcast 500ft
Pression 1026
Changement No Significant change
Brut EPWA 040730Z 12014KT 6000 OVC005 01/M00 Q1026 NOSIG

IFR

1°C / 0°C

[Plus]
Vent 120º 12kt
Visibilité 6000m
Météo -
Nuages Overcast 500ft
Pression 1026
Changement No Significant change
Brut EPWA 040700Z 12012KT 6000 OVC005 01/M00 Q1026 NOSIG

LIFR

0°C / 0°C

[Plus]
Vent 120º 13kt
Visibilité 5000m
Météo Mist
Nuages Vertical Visibility of 0ft.
Pression 1026
Changement No Significant change
Brut EPWA 040630Z 12013KT 5000 BR OVC004 00/M00 Q1026 NOSIG

LIFR

1°C / 0°C

[Plus]
Vent 120º 12kt
Visibilité 7000m
Météo -
Nuages Overcast 400ft
Pression 1026
Changement No Significant change
Brut EPWA 040600Z 12012KT 7000 OVC004 01/M00 Q1026 NOSIG

LIFR

1°C / 0°C

[Plus]
Vent 120º 14kt
Visibilité 7000m
Météo -
Nuages Overcast 400ft
Pression 1026
Changement No Significant change
Brut EPWA 040530Z 12014KT 7000 OVC004 01/M00 Q1026 NOSIG

LIFR

0°C / 0°C

[Plus]
Vent 120º 14kt
Visibilité 6000m
Météo -
Nuages Overcast 400ft
Pression 1026
Changement No Significant change
Brut EPWA 040500Z 12014KT 6000 OVC004 00/M00 Q1026 NOSIG

LIFR

1°C / 0°C

[Plus]
Vent 110º 14kt
Visibilité 5000m
Météo Mist
Nuages Vertical Visibility of 0ft.
Pression 1026
Changement No Significant change
Brut EPWA 040430Z 11014KT 5000 BR OVC003 01/M00 Q1026 NOSIG

LIFR

1°C / 0°C

[Plus]
Vent 120º 13kt
Visibilité 6000m
Météo -
Nuages Overcast 300ft
Pression 1026
Changement No Significant change
Brut EPWA 040400Z 12013KT 6000 OVC003 01/00 Q1026 NOSIG

LIFR

1°C / 0°C

[Plus]
Vent 110º 14kt
Visibilité 5000m
Météo Mist
Nuages Vertical Visibility of 0ft.
Pression 1026
Changement No Significant change
Brut EPWA 040330Z 11014KT 5000 BR OVC003 01/00 Q1026 NOSIG

LIFR

1°C / 0°C

[Plus]
Vent 120º 13kt
Visibilité 5000m
Météo Mist
Nuages Vertical Visibility of 0ft.
Pression 1026
Changement No Significant change
Brut EPWA 040300Z 12013KT 5000 BR OVC003 01/00 Q1026 NOSIG

TAF pour 52.17°N 20.97°E (EPWA)

From till


From till Wind 120º 12kt. Visibility 10km or more. Overcast 800ft.
Temporarly from till Overcast 400ft.

Brut: TAF EPWA 041430Z 0415/0515 12012KT 9999 OVC008 TEMPO 0423/0509 OVC004

Radar et prévision de précipitation à court terme pour 52.17°N 20.97°E

Bruine
Légère
Modéré
Fort
Très fort
Grêle

Le marqueur est placé sur 52.17°N 20.97°E. Cette animation montre le Radar des précipitations pour les dernières heures, ainsi qu'une 1h prévision. La bruine ou les légères chutes de neiges peuvent ne pas être détectées par le radar. L'intensité des précipitations est visible avec un code couleur allant du bleu clair au violet foncé et orange.

Les images satellites et les pluies actuelles pour 52.17°N 20.97°E

Le marqueur est placé sur 52.17°N 20.97°E. [Plus]

L'image satellite en temps réel combine la lumière visible pendant la journée et le rayonnement infrarouge pendant la nuit. La nuit, l'image n'est pas sombre car le rayonnement infrarouge permet de détecter les différences de température. Malheureusement, les nuages bas et le brouillard sont difficiles à distinguer des températures au sol et peuvent donc être presque invisibles pendant la nuit. Les images des satellites Météosat pour l'Europe sont mises à jour en temps réel toutes les 5 minutes. Les images GOES-16/GOES-17 (Amérique du Nord et du Sud) et Himawari (Asie) sont mises à jour toutes les 10 minutes.

Les précipitations sont estimées à partir de radars et de satellites. Les estimations des précipitations par satellite sont moins précises la nuit que le jour. Les croix oranges marquent les lieux où la foudre a été détectée (sur Europe).

Copyright 2022 EUMETSAT / meteoblue. Données de foudre fournies par nowcast.

Retour vers le haut